Погода в Большом Камагане

Россия / Курганская область     55°55′19″N   65°05′15″E
темп.,
°C
ветер,
м/с
пор.,
м/с
влажн.,
%
обл.,
%
осадки,
мм/ч
давл.,
гПа
погр.,
м
4 марта, чт
чт423:00−7ююз4895100 0.0 1001159
02:00−7ююз3796100 0.0 1000144
05:00−8ююз359798 0.0 99992
08:00−8ююз359694 0.1 99897
11:00−5зюз469592 0.1 998298
14:00−3зюз479038 0.0 997537
17:00−4зюз698968 0.1 998863
20:00−7зюз61288100 0.1 999450
5 марта, пт
пт523:00−11зюз5108982 0.1 1001190
02:00−13ююз47904 0.0 100098
05:00−9ююз6139452 0.1 999556
08:00−6юз81594100 0.8 997866
11:00−2зюз9148382 0.9 9971277
14:00−1зюз91577100 0.1 9981434
17:00−1зюз51381100 0.1 1000780
20:00−2юз51288100 0.1 1001513
6 марта, сб
сб623:00−5зюз5118797 0.1 1002296
02:00−8зюз499093 0.0 1004195
05:00−11з499179 0.0 1005179
08:00−15з511938 0.0 1006230
11:00−12з611864 0.0 1008420
14:00−9з69850 0.0 1009506
17:00−9зюз5108811 0.0 1010522
20:00−12юз489112 0.0 1010144
7 марта, вс
вс723:00−14юз449230 0.0 101182
02:00−14зюз2292100 0.0 100920
05:00−14сз1192100 0.0 100920
08:00−14с2292100 0.0 100821
11:00−10с2388100 0.0 1008238
14:00−8ссз338197 0.0 1008533
17:00−10зсз228663 0.0 100836
20:00−13з228891 0.0 101021
8 марта, пн
пн823:00−13юз239389 0.0 101130
02:00−14юз349684 0.1 101264
05:00−17зюз339477 0.1 101322
08:00−19зюз339530 0.0 101430
11:00−14ююз348938 0.0 1013236
14:00−9ю5989100 0.0 1012632
17:00−9ю71289100 0.1 1010592
20:00−12ю6148998 0.0 1009483